Regional Weather Roundup
Issued by NWS Northern Indiana

Home | Current Version | Previous Version | Text Only | Print | Product List | Glossary Off
Versions: 1 2 3 4 5 6 7 8 9 10 11 12 13 14 15 16 17 18 19 20 21 22 23 24 25 26 27 28 29 30 31 32 33 34 35 36 37 38 39 40 41 42 43 44 45 46 47 48 49 50

000
ASUS43 KIWX 210610
RWRIWX

KIWX WEATHER ROUNDUP
NATIONAL WEATHER SERVICE NORTHERN INDIANA
200 AM EDT MON MAY 21 2018

NOTE: "FAIR" INDICATES FEW OR NO CLOUDS BELOW 12,000 FEET WITH NO
SIGNIFICANT WEATHER AND/OR OBSTRUCTIONS TO VISIBILITY.

* THESE STATIONS ARE NOT UNDER NWS QUALITY CONTROL. THEY ALSO MAY NOT
  REPORT WEATHER SUCH AS PRECIPITATION OR FOG.

INZ001>027-210700-
NORTHERN INDIANA

CITY           SKY/WX    TMP DP  RH WIND       PRES   REMARKS
GARY*          CLOUDY    48  46  93 N6        30.18F
VALPARAISO     CLOUDY    52  50  93 NE3       30.16F
6HR MIN TEMP:  50; 6HR MAX TEMP:  57;

LAPORTE*       CLOUDY    54  53  97 N5        30.17F
6HR MIN TEMP:  53; 6HR MAX TEMP:  58;

KNOX*          CLOUDY    55  55 100 N6        30.16S
SOUTH BEND     CLOUDY    58  55  90 E7        30.18S
6HR MIN TEMP:  58; 6HR MAX TEMP:  61;

GOSHEN         MOCLDY    59  58  96 NE5       30.17S
6HR MIN TEMP:  59; 6HR MAX TEMP:  65;

ROCHESTER*     FAIR      64  61  88 NE3       30.15S
WARSAW*        CLOUDY    61  59  94 E6        30.16S
AUBURN*        FAIR      59  57  94 NE6       30.17F
FORT WAYNE     CLOUDY    61  58  90 E7        30.16F
6HR MIN TEMP:  61; 6HR MAX TEMP:  69;

PERU/GRISSOM   FAIR      63  63 100 E12       30.13S
6HR MIN TEMP:  63; 6HR MAX TEMP:  71;

MARION*        FAIR      62  59  90 E9        30.14S
6HR MIN TEMP:  53; 6HR MAX TEMP:  81;


$$
INZ028>050-210700-
CENTRAL INDIANA

CITY           SKY/WX    TMP DP  RH WIND       PRES   REMARKS
LAFAYETTE      MOCLDY    60  58  92 NE5       30.12S
6HR MIN TEMP:  59; 6HR MAX TEMP:  70;

KOKOMO*        FAIR      63  60  90 NE8       30.15R
6HR MIN TEMP:  63; 6HR MAX TEMP:  71;

MUNCIE*        FAIR      65  60  84 E7        30.13F
6HR MIN TEMP:  65; 6HR MAX TEMP:  75;

INDIANAPOLIS   MOCLDY    70  64  81 NE8       30.10S
6HR MIN TEMP:  70; 6HR MAX TEMP:  79;


$$
MIZ043>046-050>051-056>058-064>065-071>073-077>080-210700-
SOUTHWEST LOWER MICHIGAN

CITY           SKY/WX    TMP DP  RH WIND       PRES   REMARKS
BATTLE CREEK   MOCLDY    57  53  86 E5        30.20F
6HR MIN TEMP:  56; 6HR MAX TEMP:  61;

BENTON HARBOR  MOCLDY    53  51  93 CALM      30.17F
6HR MIN TEMP:  52; 6HR MAX TEMP:  58;

HOLLAND        FAIR      52  50  93 NE5       30.19F
6HR MIN TEMP:  52; 6HR MAX TEMP:  62;

GRAND RAPIDS   FAIR      50  48  93 NE6       30.21F
6HR MIN TEMP:  50; 6HR MAX TEMP:  60;

KALAMAZOO      FAIR      56  53  90 NE3       30.19F
6HR MIN TEMP:  56; 6HR MAX TEMP:  59;


$$
OHZ001>008-015>018-024>025-210700-
NORTHWEST OHIO

CITY           SKY/WX    TMP DP  RH WIND       PRES   REMARKS
DEFIANCE       CLOUDY    58  54  86 E8        30.19F
6HR MIN TEMP:  58; 6HR MAX TEMP:  66;

FINDLAY        FAIR      57  53  86 NE9       30.17S
6HR MIN TEMP:  57; 6HR MAX TEMP:  67;

TOLEDO EXPRESS CLOUDY    58  56  93 NE5       30.20S
6HR MIN TEMP:  58; 6HR MAX TEMP:  63;

TOLEDO METCALF CLOUDY    57  53  86 NE5       30.21S
6HR MIN TEMP:  57; 6HR MAX TEMP:  62;

LIMA           FAIR      57  54  89 NE8       30.17S
6HR MIN TEMP:  57; 6HR MAX TEMP:  68;


$$
AND FOR LAKE MICHIGAN COASTAL AND OPEN LAKE BUOY OBSERVATIONS

STATION/POSITION TEMP    WIND        PRES    VSBY  WAVE
                 AIR SEA DIR/SP/G                  HT/PER
                 (F)     (DEG/KT/KT) (MB)    (MI)  (FT/S)
CALUMET HARBOR            10/  8/ 11 1021.4F
BURNS HARBOR      48      30/  6/  8 1022.4F
SAINT JOSEPH      54      CALM  /  1 1022.7
4 MI NW BRIDGMAN  51 52   40/  6/  8 1022.3          2/ 5
MICHIGAN CITY     48 52   40/  6/  8   N/A           3/ 5

$$
&&




USA.gov is the U.S. government's official web portal to all federal, state and local government web resources and services.